Cairns, Queensland

4:12 PM AEST on August 27, 2016 (GMT +1000)
Cairns International

Weather History for YBCS - November, 2013

Change the Weather History Date:

Saturday, November 9, 2013

  Actual Average Record
Temperature  
Mean Temperature 78 °F -  
Max Temperature 87 °F 87 °F 89 °F (2007)
Min Temperature 69 °F 73 °F 65 °F (2012)
Cooling Degree Days 13    
Growing Degree Days 28 (Base 50)    
Moisture  
Dew Point 63 °F    
Average Humidity 61    
Maximum Humidity 83    
Minimum Humidity 25    
Precipitation  
Precipitation 0.00 in 0.17 in - ()
Sea Level Pressure  
Sea Level Pressure 29.87 in    
Wind  
Wind Speed 10 mph ()    
Max Wind Speed 18 mph    
Max Gust Speed -    
Visibility 6.8 miles    
Events      
Averages and records for this station are not official NWS values.
T = Trace of Precipitation, MM = Missing Value Source: Averaged Metar Reports

Daily Weather History Graph

Daily Weather History Graph

Search for Another Location

Airport or City:

Trip Planner

Search our weather history database for the weather conditions in past years. The results will help you decide how hot, cold, wet, or windy it might be!

Date:

Astronomy

Nov. 09, 2013 Rise Set
Actual Time 5:36 AM AEST 6:25 PM AEST
Civil Twilight 5:13 AM AEST 6:48 PM AEST
Nautical Twilight 4:46 AM AEST 7:15 PM AEST
Astronomical Twilight 4:19 AM AEST 7:42 PM AEST
Moon 10:53 AM AEST (11/9) 11:55 PM AEST (11/9)
Length of Visible Light 13h 35m
Length of Day
12h 49m
Waxing Crescent, 37% of the Moon is Illuminated
Nov 9
Waxing Crescent
Nov 10
First Quarter
Nov 18
Full
Nov 26
Last Quarter
Dec 3
New

Hourly Weather History & Observations

Time (AEST) Temp. Heat Index Dew Point Humidity Pressure Visibility Wind Dir Wind Speed Gust Speed Precip Events Conditions
12:00 AM 74 °F - 65 °F 68% 29.91 in - South 8.1 mph - -  
12:00 AM 73.4 °F - 66.2 °F 78% 29.89 in 6.2 mi South 8.1 mph - N/A   Partly Cloudy
12:30 AM 73.4 °F - 64.4 °F 73% 29.89 in 6.2 mi South 9.2 mph - N/A   Partly Cloudy
1:00 AM 73 °F - 65 °F 69% 29.89 in - South 8.1 mph - -  
1:00 AM 73.4 °F - 64.4 °F 73% 29.89 in 6.2 mi South 8.1 mph - N/A   Partly Cloudy
1:30 AM 71.6 °F - 66.2 °F 83% 29.86 in 6.2 mi SSE 9.2 mph - N/A   Partly Cloudy
2:00 AM 73.4 °F - 64.4 °F 73% 29.86 in 6.2 mi South 8.1 mph - N/A   Partly Cloudy
2:30 AM 73.4 °F - 64.4 °F 73% 29.86 in 6.2 mi South 8.1 mph - N/A   Partly Cloudy
3:00 AM 74 °F - 65 °F 66% 29.86 in - South 9.2 mph - -  
3:00 AM 73.4 °F - 64.4 °F 73% 29.86 in 6.2 mi South 9.2 mph - N/A   Partly Cloudy
3:30 AM 71.6 °F - 66.2 °F 83% 29.86 in 6.2 mi SE 9.2 mph - N/A   Partly Cloudy
4:00 AM 73 °F - 65 °F 69% 29.88 in - South 8.1 mph - -  
4:00 AM 73.4 °F - 64.4 °F 73% 29.86 in 6.2 mi South 8.1 mph - N/A   Partly Cloudy
4:30 AM 71.6 °F - 64.4 °F 78% 29.86 in 6.2 mi SE 11.5 mph - N/A   Scattered Clouds
5:00 AM 69.8 °F - 64.4 °F 83% 29.86 in 6.2 mi SSE 10.4 mph - N/A   Partly Cloudy
5:30 AM 71.6 °F - 64.4 °F 78% 29.89 in 6.2 mi SSE 10.4 mph - N/A   Partly Cloudy
6:00 AM 70 °F - 64 °F 76% 29.90 in - SSE 9.2 mph - -  
6:00 AM 69.8 °F - 64.4 °F 83% 29.89 in 6.2 mi SSE 9.2 mph - N/A   Partly Cloudy
6:30 AM 71.6 °F - 64.4 °F 78% 29.89 in 6.2 mi SSE 9.2 mph - N/A   Partly Cloudy
7:00 AM 73 °F - 64 °F 67% 29.93 in - SE 11.5 mph - -  
7:00 AM 73.4 °F - 64.4 °F 73% 29.92 in 6.2 mi SE 11.5 mph - N/A   Partly Cloudy
8:00 AM 77.0 °F - 62.6 °F 61% 29.92 in 6.2 mi South 10.4 mph - N/A   Partly Cloudy
8:30 AM 78.8 °F - 60.8 °F 54% 29.92 in 6.2 mi South 12.7 mph - N/A   Partly Cloudy
9:00 AM 80 °F - 61 °F 42% 29.93 in 19 mi SSE 12.7 mph - -   Partly Cloudy
9:00 AM 80.6 °F 81.5 °F 60.8 °F 51% 29.92 in 6.2 mi SSE 12.7 mph - N/A   Partly Cloudy
9:30 AM 82.4 °F 82.9 °F 60.8 °F 48% 29.92 in 6.2 mi SE 13.8 mph - N/A   Partly Cloudy
10:00 AM 84 °F - 60 °F 33% 29.92 in - SE 13.8 mph - -  
10:00 AM 84.2 °F 83.8 °F 59.0 °F 42% 29.89 in 6.2 mi SE 13.8 mph - N/A   Partly Cloudy
10:30 AM 86.0 °F 85.4 °F 59.0 °F 40% 29.89 in 6.2 mi SE 15.0 mph - N/A   Partly Cloudy
11:00 AM 86.0 °F 84.9 °F 57.2 °F 37% 29.89 in - SE 18.4 mph - N/A   Unknown
12:00 PM 86 °F - 55 °F 25% 29.88 in - ESE 17.3 mph - -  
12:30 PM 86.0 °F 84.9 °F 57.2 °F 37% 29.86 in 6.2 mi ESE 17.3 mph - N/A   Partly Cloudy
1:00 PM 86 °F - 59 °F 30% 29.86 in - ESE 17.3 mph - -  
1:00 PM 86.0 °F 85.4 °F 59.0 °F 40% 29.86 in 6.2 mi ESE 17.3 mph - N/A   Partly Cloudy
1:30 PM 86.0 °F 86.6 °F 62.6 °F 45% 29.83 in 6.2 mi East 17.3 mph - N/A   Partly Cloudy
2:00 PM 87.8 °F 88.5 °F 62.6 °F 43% 29.83 in 6.2 mi East 18.4 mph - N/A   Partly Cloudy
2:30 PM 86.0 °F 86.6 °F 62.6 °F 45% 29.83 in 6.2 mi ESE 17.3 mph - N/A   Partly Cloudy
3:00 PM 85 °F - 62 °F 37% 29.82 in 19 mi ESE 13.8 mph - -   Partly Cloudy
3:00 PM 86.0 °F 86.6 °F 62.6 °F 45% 29.80 in 6.2 mi ESE 13.8 mph - N/A   Partly Cloudy
3:30 PM 86.0 °F 86.6 °F 62.6 °F 45% 29.80 in 6.2 mi ESE 17.3 mph - N/A   Partly Cloudy
4:00 PM 84 °F - 63 °F 38% 29.82 in - SE 17.3 mph - -  
4:00 PM 84.2 °F 85.0 °F 62.6 °F 48% 29.80 in 6.2 mi SE 17.3 mph - N/A   Partly Cloudy
4:30 PM 84.2 °F 85.6 °F 64.4 °F 51% 29.80 in 6.2 mi SE 17.3 mph - N/A   Partly Cloudy
5:00 PM 82.4 °F 83.4 °F 62.6 °F 51% 29.83 in 6.2 mi SE 17.3 mph - N/A   Partly Cloudy
5:30 PM 80.6 °F 82.3 °F 64.4 °F 58% 29.83 in 6.2 mi SE 18.4 mph - N/A   Partly Cloudy
6:00 PM 79 °F - 65 °F 54% 29.86 in - SE 17.3 mph - -  
6:00 PM 78.8 °F - 64.4 °F 61% 29.86 in 6.2 mi SE 17.3 mph - N/A   Partly Cloudy
6:30 PM 77.0 °F - 66.2 °F 69% 29.86 in 6.2 mi SSE 15.0 mph - N/A   Partly Cloudy
7:00 PM 77 °F - 65 °F 59% 29.88 in - SSE 12.7 mph - -  
7:00 PM 77.0 °F - 66.2 °F 69% 29.86 in 6.2 mi SSE 12.7 mph - N/A   Partly Cloudy
7:30 PM 77.0 °F - 64.4 °F 65% 29.89 in 6.2 mi SE 11.5 mph - N/A   Partly Cloudy
8:00 PM 75.2 °F - 66.2 °F 73% 29.89 in 6.2 mi South 8.1 mph - N/A   Partly Cloudy
8:30 PM 75.2 °F - 64.4 °F 69% 29.89 in 6.2 mi South 6.9 mph - N/A   Partly Cloudy
9:00 PM 74 °F - 64 °F 65% 29.91 in - South 8.1 mph - -  
9:00 PM 75.2 °F - 64.4 °F 69% 29.89 in 6.2 mi South 8.1 mph - N/A   Partly Cloudy
9:30 PM 73.4 °F - 64.4 °F 73% 29.92 in 6.2 mi South 8.1 mph - N/A   Partly Cloudy
10:00 PM 74 °F - 64 °F 63% 29.92 in - South 8.1 mph - -  
10:00 PM 73.4 °F - 64.4 °F 73% 29.89 in 6.2 mi South 8.1 mph - N/A   Partly Cloudy
10:30 PM 73.4 °F - 64.4 °F 73% 29.89 in 6.2 mi SSE 8.1 mph - N/A   Partly Cloudy
11:00 PM 75.2 °F - 62.6 °F 65% 29.89 in 6.2 mi South 9.2 mph - N/A   Partly Cloudy
11:30 PM 71.6 °F - 64.4 °F 78% 29.89 in 6.2 mi SSE 8.1 mph - N/A   Partly Cloudy